Location: Sternwarte-Kraichtal
(49.1689°N, 8.6996°E)
Time: 19:50:12
(UTC+02:00)

Vanguard 2 Rocket - Pass Details

Date: 26 May 2022
Orbit: 553 x 3323 km, 32.9° (Epoch: 02 July)

Event Time Altitude Azimuth Distance (km) Brightness Sun altitude
Rises 16:17:27 0° 246° (WSW) 7,237 12.2 45.5°
Reaches altitude 10° 16:23:03 10° 240° (WSW) 6,038 12.1 44.7°
Maximum altitude 16:38:40 39° 181° (S) 3,232 10.3 42.3°
Drops below altitude 10° 16:48:54 10° 117° (ESE) 3,999 9.9 40.7°
Sets 16:51:46 0° 110° (ESE) 4,657 10.1 40.2°
